Snowfall_Accumulation
0.0 0.0 0.0 0.0 0.0 0.0 0.0 0.0 18.7 0.0 0.0 4.4 20.6 13.0 0.6 0.0 0.0 0.0 0.0 0.0 0.0 0.1 0.0 0.0 0.1 0.0 0.0 0.0 0.0 0.0 0.0 0.1 0.4 0.0 0.0 0.0 0.0 0.0 0.0 7.9 7.4 4.2 3.6 3.6
0.0 0.0 0.0 0.0 0.0 0.0 0.0 7.3 3.8 0.0 0.0 27.8 15.4 1.4 0.2 0.0 0.0 0.0 0.0 0.0 0.0 0.0 0.0 0.1 0.0 0.0 0.0 0.0 0.0 0.1 0.0 1.3 2.6 0.7 0.0 0.0 0.1 0.0 0.0 0.2 1.6 4.6 8.3 1.4
0.0 0.0 0.0 0.0 0.0 0.0 0.0 4.9 26.8 1.9 0.0 1.4 2.3 6.4 2.1 0.7 0.0 0.1 0.2 0.0 0.0 0.0 0.0 0.0 0.0 0.0 0.0 0.0 0.0 0.0 0.0 0.9 2.8 4.0 0.9 0.3 0.3 0.0 0.0 2.0 10.0 4.7 2.3 0.0
0.0 0.0 0.0 0.0 0.0 0.0 0.0 7.3 20.4 0.0 27.4 15.4 2.3 0.9 0.1 0.8 2.6 0.3 0.0 1.9 2.1 2.2 1.2 0.1 0.1 0.0 0.0 0.0 0.0 0.0 0.6 5.4 3.4 1.8 1.0 0.5 0.3 0.3 0.0 0.4 0.2 5.7 0.8 0.8
0.0 0.0 0.0 0.0 0.0 0.0 0.0 35.3 8.2 0.3 0.9 1.2 1.1 2.2 3.7 0.6 0.5 0.1 0.7 2.5 0.4 0.2 1.2 0.3 0.9 0.5 0.3 0.4 0.0 0.3 0.0 4.1 3.6 2.9 1.2 1.6 0.9 0.1 0.1 0.3 0.6 1.4 1.3 0.9
0.0 0.0 0.0 0.0 0.0 0.0 3.7 1.8 0.0 0.9 3.1 1.4 4.5 3.0 1.3 1.5 0.0 0.0 0.0 0.1 0.3 0.4 0.1 0.0 0.0 0.0 0.0 0.0 0.4 1.4 2.3 4.5 5.0 2.9 1.0 2.4 3.7 0.1 0.2 0.1 0.4 0.6 2.2 0.2
0.0 0.0 0.0 0.0 0.0 0.0 0.0 0.0 0.0 7.3 12.3 3.9 1.0 0.4 0.0 0.0 0.1 0.9 0.0 0.0 1.6 0.0 0.0 0.0 0.0 0.0 0.0 0.0 0.0 0.0 2.3 3.3 6.9 8.3 1.6 14.7 0.3 0.0 1.1 0.4 1.1 0.9 0.8 0.3
0.0 0.0 0.0 0.0 0.0 0.0 0.0 0.0 0.0 5.1 14.5 1.0 0.2 0.8 0.3 0.0 0.0 0.7 0.0 0.0 0.0 0.0 0.0 5.4 7.7 6.8 3.4 1.9 0.3 0.1 0.0 1.8 12.9 15.1 9.2 0.3 0.0 1.7 5.0 6.1 4.7 2.8 2.3 1.4
0.0 0.0 0.0 0.0 0.0 0.0 0.0 0.0 0.0 2.2 11.4 4.2 0.0 1.0 0.5 2.9 2.9 3.5 1.2 0.0 0.0 0.0 5.1 12.7 14.6 9.2 4.6 4.0 2.1 0.5 0.0 0.7 8.4 10.5 16.9 10.2 5.4 0.9 0.0 3.2 7.5 2.1 2.8 2.5
0.0 0.0 0.0 0.0 0.0 0.0 0.0 0.0 0.0 0.6 22.5 0.4 0.0 0.8 1.8 0.0 0.9 3.7 2.0 1.6 1.5 0.0 8.7 19.8 16.9 7.5 0.1 5.0 7.5 4.0 4.2 7.9 12.4 8.5 11.0 5.2 3.0 1.4 1.6 8.7 7.9 2.3 3.8 4.2
0.0 0.0 0.0 0.0 0.0 0.0 0.0 0.0 0.0 0.0 9.9 2.6 0.0 0.0 1.2 0.5 0.4 4.2 2.6 5.0 5.8 7.0 12.3 10.9 7.8 10.2 1.6 5.2 6.8 2.7 4.1 6.4 8.2 10.6 19.6 14.8 0.3 1.2 5.5 5.6 3.3 2.9 4.3 4.4
0.0 0.0 0.0 0.0 0.0 0.0 0.0 0.1 0.0 0.0 1.5 0.5 0.0 0.0 0.0 0.0 0.0 0.6 0.9 2.3 3.1 5.4 7.7 4.6 3.6 4.0 2.4 4.2 8.9 1.7 14.4 9.2 11.7 7.8 9.1 3.3 1.6 3.0 3.1 2.8 3.0 3.7 3.6 3.9
0.0 0.0 0.0 0.0 0.0 0.0 0.0 0.0 0.0 0.0 7.4 2.1 0.2 0.1 0.0 0.0 0.0 0.0 2.9 0.2 0.0 3.5 0.4 4.6 4.5 6.0 1.0 3.5 6.3 2.8 0.6 1.2 6.7 3.8 3.6 2.4 2.5 1.8 1.5 2.1 2.5 2.7 2.1 3.1
0.0 0.0 0.0 0.0 0.0 0.0 0.0 0.0 0.0 0.0 2.1 10.5 1.4 0.0 0.0 0.0 0.0 0.0 0.0 0.0 0.0 0.0 1.2 8.2 4.6 5.7 1.1 2.0 3.1 3.0 0.3 0.8 2.4 4.6 3.8 2.4 2.0 2.5 1.9 2.6 2.2 2.6 2.6 1.8
0.0 0.0 0.0 0.0 0.0 0.0 0.0 0.0 0.0 0.0 0.9 8.6 3.7 0.0 0.0 0.0 0.0 0.0 0.0 0.0 0.4 1.6 4.1 6.5 5.7 0.3 3.4 2.9 1.6 2.9 1.5 6.3 5.9 6.0 2.2 3.8 5.6 3.6 2.2 2.5 4.2 3.1 1.0 0.8
0.0 0.0 0.0 0.0 0.0 0.0 0.0 26.6 0.0 0.0 0.0 7.6 10.4 0.0 0.0 0.0 0.0 0.0 0.0 0.1 0.0 1.9 5.9 3.8 1.4 0.0 1.8 7.8 10.1 3.3 2.0 1.3 1.1 6.2 4.5 6.1 5.5 3.5 1.8 1.9 2.5 2.5 1.8 1.2
0.0 0.0 0.0 0.0 0.0 0.0 8.2 6.6 0.0 0.0 0.0 18.5 15.1 2.4 0.9 0.6 0.0 5.3 1.9 0.6 2.6 2.6 4.7 3.7 1.2 1.1 0.3 6.2 8.2 3.7 2.3 2.8 2.4 2.1 2.2 2.6 2.2 2.1 0.9 0.1 0.0 0.0 0.0 0.0
0.0 0.0 0.0 0.0 0.0 0.0 1.3 0.0 0.0 0.0 4.4 6.2 13.6 4.5 4.6 0.9 7.6 13.5 4.8 8.6 8.7 5.7 3.1 2.0 1.4 0.6 2.6 10.1 5.6 3.1 2.1 2.7 2.2 2.0 0.8 0.5 0.0 0.0 0.0 0.0 0.0 0.0 0.0 0.0
0.0 0.0 0.0 0.0 0.0 2.2 0.0 0.0 0.0 0.0 0.2 6.4 1.5 7.1 19.2 3.7 3.3 5.0 4.8 2.6 13.0 2.7 4.2 1.5 1.9 9.2 15.4 8.2 2.4 3.0 1.8 2.8 2.6 1.1 0.2 0.0 0.0 0.1 0.0 0.0 0.0 0.0 0.0 0.0
0.0 0.0 3.2 19.1 0.0 0.0 0.0 0.0 5.7 11.5 4.5 2.3 1.9 0.2 5.9 3.1 4.8 4.8 3.7 2.4 3.5 8.5 3.0 1.2 11.1 10.1 2.9 0.8 0.6 1.4 0.9 0.8 0.8 0.9 0.8 0.2 0.6 0.2 0.1 0.2 0.2 0.1 0.1 0.3
0.0 3.8 8.7 0.0 0.0 0.0 1.5 10.9 9.8 4.6 5.8 0.2 0.7 0.4 3.4 0.5 12.0 6.1 0.6 3.7 2.1 4.2 4.6 3.9 9.5 6.7 3.8 0.6 0.3 0.6 1.0 1.1 1.4 1.7 2.0 1.4 1.2 1.2 0.4 0.8 1.0 0.9 1.3 1.3
0.0 0.0 0.0 0.5 3.4 6.3 11.4 8.3 5.2 4.0 2.0 0.5 0.9 0.9 0.1 2.9 1.5 5.8 2.2 5.2 4.6 13.1 2.4 4.2 8.8 6.5 1.6 1.0 0.8 0.7 1.1 1.8 2.3 2.0 2.4 2.6 2.6 2.7 2.3 2.3 2.4 2.7 3.0 3.4
0.0 0.6 1.9 3.2 5.0 13.4 7.7 3.6 3.4 4.1 2.2 1.6 2.1 6.3 5.5 1.9 1.2 6.0 3.9 10.6 11.3 1.2 18.2 11.4 6.3 2.8 1.5 0.8 0.7 1.0 1.5 1.7 2.2 3.1 3.1 2.6 2.7 2.6 2.6 3.1 3.7 3.7 6.3 9.0
2.2 4.0 8.3 9.7 6.6 6.1 6.3 5.3 6.3 3.0 3.7 3.4 5.7 7.2 8.9 6.8 9.1 6.5 6.0 9.6 6.6 10.2 10.1 9.1 7.3 3.5 3.0 2.5 2.5 1.5 4.3 4.7 4.4 5.9 5.2 5.2 5.5 8.9 10.2 11.3 12.4 10.4 12.5 16.0
7.8 5.1 12.3 6.6 8.8 7.2 6.8 5.0 3.4 1.6 2.4 7.2 9.5 8.9 6.1 8.0 13.4 7.4 4.4 6.9 9.7 9.5 13.2 10.8 6.7 5.2 5.0 5.9 6.5 7.1 8.6 9.1 9.9 11.3 10.3 13.0 12.5 10.7 14.4 15.9 14.5 11.9 12.1 12.8
8.5 9.8 11.4 6.3 5.3 9.1 7.2 5.1 3.9 2.9 8.0 8.3 7.6 10.5 10.2 8.4 4.8 5.3 5.5 5.9 10.5 10.4 7.7 7.9 6.0 7.5 9.4 10.5 11.0 12.0 12.0 11.9 12.6 12.6 11.4 11.6 11.4 10.6 11.7 12.1 11.1 10.9 8.3 8.0
7.0 11.9 11.8 10.8 8.7 12.0 11.2 7.3 5.6 3.8 8.2 12.7 6.3 7.7 9.1 4.6 3.0 2.9 3.9 9.1 12.9 11.9 11.8 9.9 8.9 9.9 12.4 12.7 11.8 12.0 10.3 9.3 9.0 8.4 7.9 8.4 8.3 5.2 4.0 5.1 6.5 4.7 4.5 4.2